Main page
METAR-TAF:

METAR-TAF

Airports :

Wahoo Municipal Airport

Wahoo, Nebraska, United States

latitude: 41-14-26N, longitude: 096-35-40W, elevation: 1223 ft

Current weather observation

The report was made 24 minutes ago, at 21:55 UTC
Wind 23 mph from the South/Southeast with gusts up to 30 mph
Temperature 75°F
Humidity 29%
Pressure 29.73 in. Hg
Visibility: 10 miles
Clear sky

METAR: KAHQ 012155Z AUTO 16020G26KT 10SM CLR 24/05 A2973 RMK AO2 T02390051

Time: 17:19 (22:19 UTC)


TAF: missing

Weather observations and forecasts of more than 4000 airports (METAR and TAF reports).

The available stations are represented by yellow and red dots on the map.

Hover mouse over dot to see the name of the station.

Then click to see weather observations and forecasts.

To change the map : click on the green buttons with a black cross to zoom in, on the green button with a dash to zoom out, or on the green arrows for adjacent maps.


METAR-TAF: